| time (UTC) | temp F | wind direction | speed MPH | gust MPH | rain 1hr in | rain 24hr in | rain mn in | humidity % | barometer mb |
| 20260508142935 | 47 | 175 | 5.0 | 7.0 | 0.00 | 0.00 | 0.00 | 95 | 1000.7 |
| 20260508142656 | 47 | 172 | 6.0 | 7.0 | 0.00 | 0.00 | 0.00 | 95 | 1000.5 |
| 20260508141917 | 46 | 172 | 5.0 | 6.0 | 0.00 | 0.00 | 0.00 | 95 | 1000.5 |
| 20260508141412 | 46 | 171 | 5.0 | 6.0 | 0.00 | 0.00 | 0.00 | 95 | 1000.4 |
| 20260508140859 | 46 | 174 | 5.0 | 6.0 | 0.00 | 0.00 | 0.00 | 95 | 1000.3 |
| 20260508140355 | 46 | 176 | 5.0 | 6.0 | 0.00 | 0.00 | 0.00 | 95 | 1000.3 |
| 20260508135841 | 47 | 174 | 5.0 | 7.0 | 0.00 | 0.00 | 0.00 | 95 | 1000.3 |
| 20260508135326 | 47 | 168 | 6.0 | 7.0 | 0.00 | 0.00 | 0.00 | 95 | 1000.3 |
| 20260508134812 | 47 | 170 | 6.0 | 6.0 | 0.00 | 0.00 | 0.00 | 95 | 1000.3 |
| 20260508134308 | 47 | 184 | 5.0 | 6.0 | 0.00 | 0.00 | 0.00 | 94 | 1000.3 |
| 20260508133802 | 47 | 175 | 5.0 | 6.0 | 0.00 | 0.00 | 0.00 | 94 | 1000.3 |
| 20260508133303 | 47 | 177 | 6.0 | 6.0 | 0.00 | 0.00 | 0.00 | 94 | 1000.3 |
| 20260508132803 | 47 | 194 | 6.0 | 6.0 | 0.00 | 0.00 | 0.00 | 94 | 1000.4 |
| 20260508132306 | 47 | 192 | 6.0 | 6.0 | 0.00 | 0.00 | 0.00 | 94 | 1000.4 |
| 20260508131757 | 47 | 176 | 5.0 | 6.0 | 0.00 | 0.00 | 0.00 | 93 | 1000.5 |
| 20260508131254 | 47 | 179 | 6.0 | 6.0 | 0.00 | 0.00 | 0.00 | 93 | 1000.5 |
| 20260508131007 | 47 | 186 | 6.0 | 7.0 | 0.00 | 0.00 | 0.00 | 93 | 1000.3 |
| 20260508130245 | 48 | 181 | 5.0 | 7.0 | 0.00 | 0.00 | 0.00 | 92 | 1000.2 |
| 20260508125740 | 48 | 181 | 6.0 | 7.0 | 0.00 | 0.00 | 0.00 | 92 | 1000.3 |
| 20260508125500 | 48 | 188 | 5.0 | 6.0 | 0.00 | 0.00 | 0.00 | 92 | 1000.4 |
| 20260508124732 | 48 | 175 | 5.0 | 6.0 | 0.00 | 0.00 | 0.00 | 91 | 1000.4 |
| 20260508124218 | 48 | 172 | 5.0 | 6.0 | 0.00 | 0.00 | 0.00 | 91 | 1000.5 |
| 20260508123714 | 48 | 172 | 4.0 | 6.0 | 0.00 | 0.00 | 0.00 | 91 | 1000.4 |
| 20260508123210 | 48 | 180 | 5.0 | 6.0 | 0.00 | 0.00 | 0.00 | 91 | 1000.4 |
| 20260508122701 | 49 | 176 | 4.0 | 6.0 | 0.00 | 0.00 | 0.00 | 90 | 1000.4 |
| 20260508122151 | 49 | 175 | 4.0 | 6.0 | 0.00 | 0.00 | 0.00 | 91 | 1000.5 |
| 20260508121631 | 49 | 171 | 5.0 | 6.0 | 0.00 | 0.00 | 0.00 | 90 | 1000.3 |
| 20260508121131 | 49 | 188 | 5.0 | 6.0 | 0.00 | 0.00 | 0.00 | 89 | 1000.3 |
| 20260508120631 | 49 | 174 | 5.0 | 6.0 | 0.00 | 0.00 | 0.00 | 88 | 1000.4 |
| 20260508120126 | 49 | 181 | 5.0 | 6.0 | 0.00 | 0.00 | 0.00 | 87 | 1000.3 |
| 20260508115601 | 49 | 172 | 6.0 | 6.0 | 0.00 | 0.00 | 0.00 | 88 | 1000.1 |
| 20260508115313 | 49 | 169 | 6.0 | 6.0 | 0.00 | 0.00 | 0.00 | 90 | 1000.1 |
| 20260508114551 | 50 | 170 | 6.0 | 6.0 | 0.00 | 0.00 | 0.00 | 90 | 999.9 |
| 20260508114036 | 49 | 177 | 5.0 | 6.0 | 0.00 | 0.00 | 0.00 | 92 | 999.9 |
| 20260508114019 | 49 | 177 | 5.0 | 6.0 | 0.00 | 0.00 | 0.00 | 93 | 999.8 |
| 20260508113030 | 49 | 171 | 5.0 | 6.0 | 0.00 | 0.00 | 0.00 | 94 | 999.7 |
| 20260508112529 | 49 | 166 | 6.0 | 6.0 | 0.00 | 0.00 | 0.00 | 94 | 999.6 |
| 20260508112030 | 49 | 175 | 4.0 | 7.0 | 0.00 | 0.00 | 0.00 | 93 | 999.7 |
| 20260508111750 | 49 | 197 | 6.0 | 7.0 | 0.00 | 0.00 | 0.00 | 93 | 999.7 |
| 20260508111023 | 49 | 180 | 5.0 | 6.0 | 0.00 | 0.00 | 0.00 | 93 | 999.7 |
| 20260508110518 | 49 | 174 | 4.0 | 6.0 | 0.00 | 0.00 | 0.00 | 93 | 999.4 |
| 20260508110014 | 49 | 182 | 6.0 | 6.0 | 0.00 | 0.00 | 0.00 | 93 | 999.5 |
| 20260508105511 | 50 | 175 | 5.0 | 7.0 | 0.00 | 0.00 | 0.00 | 93 | 999.5 |
| 20260508105007 | 50 | 178 | 5.0 | 7.0 | 0.00 | 0.00 | 0.00 | 92 | 999.4 |
| 20260508104452 | 50 | 181 | 5.0 | 7.0 | 0.00 | 0.00 | 0.00 | 92 | 999.6 |
| 20260508104428 | 50 | 188 | 5.0 | 7.0 | 0.00 | 0.00 | 0.00 | 91 | 999.5 |
| 20260508103710 | 50 | 194 | 6.0 | 7.0 | 0.00 | 0.00 | 0.00 | 90 | 999.4 |
| 20260508102940 | 51 | 182 | 6.0 | 7.0 | 0.00 | 0.00 | 0.00 | 89 | 999.4 |
| 20260508102425 | 51 | 195 | 5.0 | 6.0 | 0.00 | 0.00 | 0.00 | 89 | 999.3 |
| 20260508101921 | 51 | 182 | 5.0 | 6.0 | 0.00 | 0.00 | 0.00 | 89 | 999.2 |
| 20260508101418 | 51 | 175 | 5.0 | 6.0 | 0.00 | 0.00 | 0.00 | 89 | 999.2 |
| 20260508100914 | 51 | 175 | 4.0 | 6.0 | 0.00 | 0.00 | 0.00 | 89 | 999.1 |
| 20260508100359 | 51 | 171 | 4.0 | 6.0 | 0.00 | 0.00 | 0.00 | 89 | 999.0 |
| 20260508095857 | 51 | 174 | 5.0 | 6.0 | 0.00 | 0.00 | 0.00 | 88 | 999.0 |
| 20260508095358 | 51 | 172 | 5.0 | 6.0 | 0.00 | 0.00 | 0.00 | 88 | 998.9 |
| 20260508094856 | 52 | 174 | 5.0 | 6.0 | 0.00 | 0.00 | 0.00 | 87 | 998.9 |
| 20260508094352 | 52 | 179 | 4.0 | 6.0 | 0.00 | 0.00 | 0.00 | 86 | 999.0 |
| 20260508093829 | 52 | 172 | 5.0 | 6.0 | 0.00 | 0.00 | 0.00 | 85 | 998.9 |
| 20260508093315 | 52 | 180 | 5.0 | 6.0 | 0.00 | 0.00 | 0.00 | 84 | 998.9 |
| 20260508092810 | 53 | 181 | 5.0 | 6.0 | 0.00 | 0.00 | 0.00 | 83 | 998.6 |
| 20260508092312 | 53 | 187 | 5.0 | 6.0 | 0.00 | 0.00 | 0.00 | 82 | 998.6 |
| 20260508091757 | 53 | 179 | 5.0 | 6.0 | 0.00 | 0.00 | 0.00 | 81 | 998.6 |
| 20260508091257 | 54 | 178 | 5.0 | 6.0 | 0.00 | 0.00 | 0.00 | 80 | 998.4 |
| 20260508090744 | 54 | 196 | 6.0 | 6.0 | 0.00 | 0.00 | 0.00 | 77 | 998.4 |
| 20260508090446 | 54 | 178 | 4.0 | 6.0 | 0.00 | 0.00 | 0.00 | 76 | 998.1 |
| 20260508085715 | 55 | 170 | 5.0 | 6.0 | 0.00 | 0.00 | 0.00 | 77 | 998.2 |
| 20260508085155 | 56 | 172 | 5.0 | 6.0 | 0.00 | 0.00 | 0.00 | 77 | 998.1 |
| 20260508084707 | 56 | 176 | 5.0 | 6.0 | 0.00 | 0.00 | 0.00 | 75 | 998.2 |
| 20260508084142 | 56 | 179 | 4.0 | 6.0 | 0.00 | 0.00 | 0.00 | 73 | 998.2 |
| 20260508083619 | 56 | 178 | 4.0 | 6.0 | 0.00 | 0.00 | 0.00 | 72 | 998.1 |
| 20260508083338 | 56 | 176 | 4.0 | 6.0 | 0.00 | 0.00 | 0.00 | 73 | 997.9 |
| 20260508082831 | 56 | 178 | 5.0 | 6.0 | 0.00 | 0.00 | 0.00 | 73 | 997.8 |
| 20260508082045 | 56 | 172 | 4.0 | 6.0 | 0.00 | 0.00 | 0.00 | 72 | 997.7 |
| 20260508081540 | 56 | 183 | 4.0 | 6.0 | 0.00 | 0.00 | 0.00 | 72 | 997.7 |
| 20260508081036 | 56 | 180 | 4.0 | 6.0 | 0.00 | 0.00 | 0.00 | 72 | 997.6 |
| 20260508080532 | 56 | 182 | 5.0 | 6.0 | 0.00 | 0.00 | 0.00 | 72 | 997.6 |
| 20260508080024 | 57 | 180 | 5.0 | 6.0 | 0.00 | 0.00 | 0.00 | 70 | 997.5 |
| 20260508075738 | 58 | 179 | 5.0 | 6.0 | 0.00 | 0.00 | 0.00 | 68 | 997.3 |
| 20260508075010 | 58 | 186 | 5.0 | 6.0 | 0.00 | 0.00 | 0.00 | 67 | 997.4 |
| 20260508074728 | 58 | 180 | 4.0 | 7.0 | 0.00 | 0.00 | 0.00 | 66 | 997.4 |
| 20260508073953 | 59 | 179 | 5.0 | 7.0 | 0.00 | 0.00 | 0.00 | 65 | 997.4 |
| 20260508073449 | 59 | 189 | 5.0 | 7.0 | 0.00 | 0.00 | 0.00 | 65 | 997.3 |
| 20260508072946 | 59 | 179 | 4.0 | 7.0 | 0.00 | 0.00 | 0.00 | 63 | 997.4 |
| 20260508072418 | 60 | 188 | 5.0 | 6.0 | 0.00 | 0.00 | 0.00 | 62 | 997.0 |
| 20260508071915 | 61 | 168 | 5.0 | 7.0 | 0.00 | 0.00 | 0.00 | 59 | 997.1 |
| 20260508071411 | 61 | 169 | 5.0 | 8.0 | 0.00 | 0.00 | 0.00 | 57 | 997.0 |
| 20260508070908 | 62 | 189 | 4.0 | 8.0 | 0.00 | 0.00 | 0.00 | 55 | 997.1 |
| 20260508070403 | 62 | 163 | 4.0 | 6.0 | 0.00 | 0.00 | 0.00 | 52 | 996.8 |
| 20260508065853 | 63 | 167 | 4.0 | 6.0 | 0.00 | 0.00 | 0.00 | 48 | 996.8 |
| 20260508065405 | 63 | 171 | 4.0 | 6.0 | 0.00 | 0.00 | 0.00 | 47 | 996.8 |
| 20260508065111 | 63 | 178 | 4.0 | 6.0 | 0.00 | 0.00 | 0.00 | 47 | 996.7 |
| 20260508064353 | 64 | 177 | 5.0 | 6.0 | 0.00 | 0.00 | 0.00 | 46 | 996.6 |
| 20260508063841 | 64 | 175 | 5.0 | 6.0 | 0.00 | 0.00 | 0.00 | 45 | 996.4 |
| 20260508063321 | 64 | 176 | 4.0 | 5.0 | 0.00 | 0.00 | 0.00 | 46 | 996.4 |
| 20260508062821 | 64 | 180 | 4.0 | 6.0 | 0.00 | 0.00 | 0.00 | 45 | 996.3 |
| 20260508062321 | 65 | 178 | 4.0 | 6.0 | 0.00 | 0.00 | 0.00 | 43 | 996.4 |
| 20260508061815 | 65 | 176 | 4.0 | 6.0 | 0.00 | 0.00 | 0.00 | 43 | 996.5 |
| 20260508061311 | 65 | 175 | 5.0 | 6.0 | 0.00 | 0.00 | 0.00 | 42 | 996.3 |
| 20260508060806 | 65 | 180 | 5.0 | 6.0 | 0.00 | 0.00 | 0.00 | 42 | 996.3 |
| 20260508060303 | 66 | 171 | 5.0 | 6.0 | 0.00 | 0.00 | 0.00 | 44 | 996.1 |
| 20260508055802 | 66 | 174 | 4.0 | 6.0 | 0.00 | 0.00 | 0.00 | 44 | 996.3 |
| 20260508055255 | 66 | 185 | 5.0 | 6.0 | 0.00 | 0.00 | 0.00 | 40 | 996.2 |
| 20260508054750 | 66 | 190 | 5.0 | 6.0 | 0.00 | 0.00 | 0.00 | 40 | 996.3 |
| 20260508054246 | 67 | 169 | 5.0 | 7.0 | 0.00 | 0.00 | 0.00 | 38 | 996.4 |
| 20260508053742 | 67 | 191 | 5.0 | 7.0 | 0.00 | 0.00 | 0.00 | 40 | 996.4 |
| 20260508053229 | 67 | 196 | 6.0 | 6.0 | 0.00 | 0.00 | 0.00 | 38 | 996.2 |
| 20260508052716 | 67 | 178 | 5.0 | 8.0 | 0.00 | 0.00 | 0.00 | 38 | 996.2 |
| 20260508052210 | 67 | 195 | 5.0 | 9.0 | 0.00 | 0.00 | 0.00 | 38 | 996.1 |
| 20260508051655 | 67 | 177 | 5.0 | 9.0 | 0.00 | 0.00 | 0.00 | 38 | 996.3 |
| 20260508051410 | 67 | 182 | 6.0 | 8.0 | 0.00 | 0.00 | 0.00 | 39 | 996.2 |
| 20260508050647 | 68 | 176 | 4.0 | 7.0 | 0.00 | 0.00 | 0.00 | 40 | 996.5 |
| 20260508050143 | 68 | 180 | 4.0 | 6.0 | 0.00 | 0.00 | 0.00 | 38 | 996.6 |
| 20260508045638 | 68 | 267 | 2.0 | 4.0 | 0.00 | 0.00 | 0.00 | 40 | 996.5 |
| 20260508045357 | 68 | 128 | 0.0 | 4.0 | 0.00 | 0.00 | 0.00 | 38 | 996.5 |
| 20260508044622 | 68 | 219 | 1.0 | 4.0 | 0.00 | 0.00 | 0.00 | 35 | 996.6 |
| 20260508044116 | 69 | 98 | 1.0 | 3.0 | 0.00 | 0.00 | 0.00 | 38 | 996.5 |
| 20260508043840 | 69 | 81 | 1.0 | 4.0 | 0.00 | 0.00 | 0.00 | 34 | 996.5 |
| 20260508043107 | 70 | 269 | 2.0 | 4.0 | 0.00 | 0.00 | 0.00 | 34 | 996.6 |
| 20260508042605 | 71 | 253 | 1.0 | 4.0 | 0.00 | 0.00 | 0.00 | 29 | 996.8 |
| 20260508042048 | 71 | 207 | 0.0 | 4.0 | 0.00 | 0.00 | 0.00 | 30 | 996.8 |
| 20260508041549 | 71 | 101 | 0.0 | 3.0 | 0.00 | 0.00 | 0.00 | 34 | 996.7 |
| 20260508041049 | 70 | 195 | 1.0 | 3.0 | 0.00 | 0.00 | 0.00 | 34 | 996.6 |
| 20260508040810 | 71 | 95 | 2.0 | 3.0 | 0.00 | 0.00 | 0.00 | 34 | 996.8 |
| 20260508040033 | 70 | 56 | 0.0 | 4.0 | 0.00 | 0.00 | 0.00 | 40 | 997.1 |
| 20260508035529 | 71 | 37 | 1.0 | 4.0 | 0.00 | 0.00 | 0.00 | 35 | 996.9 |
| 20260508035025 | 70 | 286 | 2.0 | 3.0 | 0.00 | 0.00 | 0.00 | 36 | 997.1 |
| 20260508034520 | 71 | 310 | 1.0 | 3.0 | 0.00 | 0.00 | 0.00 | 33 | 997.0 |
| 20260508034016 | 70 | 264 | 2.0 | 4.0 | 0.00 | 0.00 | 0.00 | 31 | 997.1 |
| 20260508033940 | 70 | 129 | 0.0 | 4.0 | 0.00 | 0.00 | 0.00 | 35 | 997.2 |
| 20260508032958 | 69 | 17 | 2.0 | 4.0 | 0.00 | 0.00 | 0.00 | 36 | 997.3 |
| 20260508032444 | 69 | 94 | 2.0 | 3.0 | 0.00 | 0.00 | 0.00 | 34 | 997.3 |
| 20260508031930 | 71 | 118 | 2.0 | 4.0 | 0.00 | 0.00 | 0.00 | 30 | 997.2 |
| 20260508031904 | 70 | 283 | 0.0 | 4.0 | 0.00 | 0.00 | 0.00 | 36 | 997.2 |
| 20260508030921 | 70 | 287 | 4.0 | 4.0 | 0.00 | 0.00 | 0.00 | 34 | 997.4 |
| 20260508030417 | 68 | 60 | 2.0 | 3.0 | 0.00 | 0.00 | 0.00 | 38 | 997.6 |
| 20260508025904 | 69 | 109 | 1.0 | 4.0 | 0.00 | 0.00 | 0.00 | 33 | 997.8 |
| 20260508025400 | 70 | 274 | 2.0 | 4.0 | 0.00 | 0.00 | 0.00 | 34 | 997.9 |
| 20260508024856 | 69 | 262 | 2.0 | 4.0 | 0.00 | 0.00 | 0.00 | 35 | 997.6 |
| 20260508024834 | 70 | 27 | 2.0 | 4.0 | 0.00 | 0.00 | 0.00 | 36 | 997.9 |
| 20260508024324 | 70 | 18 | 1.0 | 4.0 | 0.00 | 0.00 | 0.00 | 31 | 998.1 |
| 20260508023345 | 71 | 337 | 2.0 | 4.0 | 0.00 | 0.00 | 0.00 | 35 | 998.3 |
| 20260508022838 | 70 | 321 | 0.0 | 3.0 | 0.00 | 0.00 | 0.00 | 35 | 998.3 |
| 20260508022336 | 70 | 258 | 0.0 | 3.0 | 0.00 | 0.00 | 0.00 | 37 | 998.3 |
| 20260508021820 | 70 | 45 | 1.0 | 3.0 | 0.00 | 0.00 | 0.00 | 35 | 998.5 |
| 20260508021316 | 70 | 315 | 1.0 | 3.0 | 0.00 | 0.00 | 0.00 | 35 | 998.6 |
| 20260508020815 | 69 | 139 | 2.0 | 4.0 | 0.00 | 0.00 | 0.00 | 32 | 998.7 |
| 20260508020315 | 69 | 271 | 2.0 | 4.0 | 0.00 | 0.00 | 0.00 | 34 | 998.7 |
| 20260508015813 | 67 | 69 | 1.0 | 3.0 | 0.00 | 0.00 | 0.00 | 32 | 998.8 |
| 20260508015309 | 67 | 152 | 0.0 | 6.0 | 0.00 | 0.00 | 0.00 | 33 | 999.0 |
| 20260508014806 | 67 | 44 | 2.0 | 6.0 | 0.00 | 0.00 | 0.00 | 32 | 998.9 |
| 20260508014302 | 66 | 168 | 4.0 | 6.0 | 0.00 | 0.00 | 0.00 | 34 | 999.3 |
| 20260508014019 | 65 | 149 | 5.0 | 6.0 | 0.00 | 0.00 | 0.00 | 33 | 999.3 |
| 20260508013511 | 65 | 180 | 3.0 | 6.0 | 0.00 | 0.00 | 0.00 | 34 | 999.5 |
| 20260508012749 | 65 | 173 | 4.0 | 6.0 | 0.00 | 0.00 | 0.00 | 32 | 999.4 |
| 20260508012245 | 65 | 171 | 6.0 | 6.0 | 0.00 | 0.00 | 0.00 | 33 | 999.4 |
| 20260508011935 | 65 | 167 | 4.0 | 7.0 | 0.00 | 0.00 | 0.00 | 36 | 999.7 |
| 20260508010733 | 64 | 151 | 4.0 | 7.0 | 0.00 | 0.00 | 0.00 | 33 | 999.8 |
| 20260508010230 | 64 | 146 | 5.0 | 6.0 | 0.00 | 0.00 | 0.00 | 36 | 1000.0 |
| 20260508005937 | 65 | 155 | 4.0 | 6.0 | 0.00 | 0.00 | 0.00 | 36 | 999.9 |
| 20260508005211 | 64 | 163 | 4.0 | 6.0 | 0.00 | 0.00 | 0.00 | 35 | 1000.0 |
| 20260508004707 | 64 | 167 | 6.0 | 6.0 | 0.00 | 0.00 | 0.00 | 37 | 1000.1 |
| 20260508004152 | 64 | 151 | 4.0 | 7.0 | 0.00 | 0.00 | 0.00 | 35 | 1000.0 |
| 20260508003649 | 64 | 152 | 5.0 | 7.0 | 0.00 | 0.00 | 0.00 | 34 | 1000.3 |
| 20260508003145 | 64 | 168 | 6.0 | 6.0 | 0.00 | 0.00 | 0.00 | 35 | 1000.3 |
| 20260508002630 | 64 | 160 | 4.0 | 8.0 | 0.00 | 0.00 | 0.00 | 36 | 1000.4 |
| 20260508002125 | 64 | 159 | 5.0 | 8.0 | 0.00 | 0.00 | 0.00 | 33 | 1000.6 |
| 20260508001611 | 65 | 166 | 4.0 | 6.0 | 0.00 | 0.00 | 0.00 | 37 | 1000.4 |
| 20260508001107 | 64 | 196 | 4.0 | 6.0 | 0.00 | 0.00 | 0.00 | 38 | 1000.4 |
| 20260508000553 | 64 | 160 | 4.0 | 6.0 | 0.00 | 0.00 | 0.00 | 33 | 1000.7 |
| 20260508000101 | 63 | 170 | 4.0 | 7.0 | 0.00 | 0.00 | 0.00 | 34 | 1000.7 |
| 20260507235544 | 64 | 167 | 4.0 | 7.0 | 0.00 | 0.00 | 0.00 | 34 | 1000.5 |
| 20260507235040 | 64 | 159 | 4.0 | 7.0 | 0.00 | 0.00 | 0.00 | 30 | 1000.6 |
| 20260507234536 | 66 | 193 | 4.0 | 7.0 | 0.00 | 0.00 | 0.00 | 39 | 1000.8 |
| 20260507234032 | 65 | 195 | 4.0 | 7.0 | 0.00 | 0.00 | 0.00 | 36 | 1000.5 |
| 20260507233528 | 65 | 193 | 4.0 | 7.0 | 0.00 | 0.00 | 0.00 | 34 | 1000.7 |
| 20260507233501 | 65 | 177 | 4.0 | 6.0 | 0.00 | 0.00 | 0.00 | 38 | 1000.5 |
| 20260507232520 | 65 | 185 | 4.0 | 6.0 | 0.00 | 0.00 | 0.00 | 38 | 1000.6 |
| 20260507232017 | 64 | 201 | 4.0 | 6.0 | 0.00 | 0.00 | 0.00 | 38 | 1000.6 |
| 20260507231511 | 64 | 184 | 4.0 | 6.0 | 0.00 | 0.00 | 0.00 | 41 | 1000.6 |
| 20260507231008 | 64 | 179 | 4.0 | 6.0 | 0.00 | 0.00 | 0.00 | 40 | 1000.4 |
| 20260507230503 | 63 | 181 | 3.0 | 7.0 | 0.00 | 0.00 | 0.00 | 39 | 1000.5 |
| 20260507230000 | 62 | 168 | 6.0 | 7.0 | 0.00 | 0.00 | 0.00 | 47 | 1000.5 |
| 20260507225446 | 61 | 181 | 4.0 | 7.0 | 0.00 | 0.00 | 0.00 | 47 | 1000.7 |
| 20260507225159 | 61 | 183 | 4.0 | 7.0 | 0.00 | 0.00 | 0.00 | 49 | 1000.5 |
| 20260507224437 | 60 | 203 | 5.0 | 8.0 | 0.00 | 0.00 | 0.00 | 51 | 1000.6 |
| 20260507224152 | 58 | 192 | 5.0 | 8.0 | 0.00 | 0.00 | 0.00 | 52 | 1000.6 |
| 20260507223429 | 59 | 197 | 5.0 | 8.0 | 0.00 | 0.00 | 0.00 | 53 | 1000.6 |
| 20260507222915 | 58 | 180 | 4.0 | 8.0 | 0.00 | 0.00 | 0.00 | 58 | 1000.5 |
| 20260507222409 | 57 | 198 | 5.0 | 8.0 | 0.00 | 0.00 | 0.00 | 58 | 1000.4 |
| 20260507221909 | 59 | 186 | 5.0 | 8.0 | 0.00 | 0.00 | 0.00 | 51 | 1000.6 |
| 20260507221633 | 59 | 179 | 4.0 | 8.0 | 0.00 | 0.00 | 0.00 | 49 | 1000.6 |
| 20260507220907 | 55 | 190 | 6.0 | 9.0 | 0.00 | 0.00 | 0.00 | 59 | 1000.6 |
| 20260507220404 | 56 | 200 | 6.0 | 9.0 | 0.00 | 0.00 | 0.00 | 57 | 1000.5 |
| 20260507215900 | 58 | 185 | 4.0 | 6.0 | 0.00 | 0.00 | 0.00 | 55 | 1000.5 |
| 20260507215835 | 57 | 165 | 5.0 | 7.0 | 0.00 | 0.00 | 0.00 | 58 | 1000.4 |
| 20260507215119 | 56 | 186 | 5.0 | 7.0 | 0.00 | 0.00 | 0.00 | 61 | 1000.3 |
| 20260507214347 | 55 | 198 | 6.0 | 7.0 | 0.00 | 0.00 | 0.00 | 63 | 1000.3 |
| 20260507213844 | 56 | 177 | 5.0 | 6.0 | 0.00 | 0.00 | 0.00 | 60 | 1000.4 |
| 20260507213340 | 55 | 183 | 5.0 | 6.0 | 0.00 | 0.00 | 0.00 | 63 | 1000.4 |
| 20260507212837 | 54 | 168 | 5.0 | 6.0 | 0.00 | 0.00 | 0.00 | 66 | 1000.5 |
| 20260507212337 | 54 | 182 | 5.0 | 6.0 | 0.00 | 0.00 | 0.00 | 66 | 1000.5 |
| 20260507211837 | 53 | 179 | 5.0 | 6.0 | 0.00 | 0.00 | 0.00 | 66 | 1000.5 |
| 20260507211539 | 51 | 166 | 5.0 | 6.0 | 0.00 | 0.00 | 0.00 | 69 | 1000.4 |
| 20260507210806 | 49 | 189 | 6.0 | 6.0 | 0.00 | 0.00 | 0.00 | 73 | 1000.3 |
| 20260507210308 | 49 | 191 | 6.0 | 6.0 | 0.00 | 0.00 | 0.00 | 70 | 1000.3 |
| 20260507205806 | 49 | 171 | 5.0 | 6.0 | 0.00 | 0.00 | 0.00 | 70 | 1000.2 |
| 20260507205307 | 48 | 172 | 6.0 | 7.0 | 0.00 | 0.00 | 0.00 | 70 | 1000.1 |
| 20260507204802 | 47 | 180 | 5.0 | 7.0 | 0.00 | 0.00 | 0.00 | 69 | 1000.0 |
| 20260507204259 | 46 | 172 | 5.0 | 7.0 | 0.00 | 0.00 | 0.00 | 74 | 999.9 |
| 20260507204018 | 46 | 174 | 5.0 | 6.0 | 0.00 | 0.00 | 0.00 | 72 | 999.9 |
| 20260507203240 | 45 | 174 | 5.0 | 6.0 | 0.00 | 0.00 | 0.00 | 75 | 999.7 |
| 20260507202736 | 45 | 174 | 6.0 | 6.0 | 0.00 | 0.00 | 0.00 | 76 | 999.7 |
| 20260507202442 | 45 | 183 | 6.0 | 6.0 | 0.00 | 0.00 | 0.00 | 74 | 999.8 |
| 20260507201941 | 45 | 178 | 5.0 | 6.0 | 0.00 | 0.00 | 0.00 | 75 | 999.9 |
| 20260507201212 | 45 | 171 | 5.0 | 7.0 | 0.00 | 0.00 | 0.00 | 77 | 999.7 |
| 20260507200709 | 45 | 172 | 5.0 | 7.0 | 0.00 | 0.00 | 0.00 | 77 | 999.7 |
| 20260507200144 | 45 | 195 | 6.0 | 7.0 | 0.00 | 0.00 | 0.00 | 73 | 999.7 |
| 20260507195629 | 45 | 174 | 6.0 | 7.0 | 0.00 | 0.00 | 0.00 | 76 | 999.4 |
| 20260507195127 | 45 | 179 | 5.0 | 6.0 | 0.00 | 0.00 | 0.00 | 77 | 999.4 |
| 20260507194621 | 45 | 183 | 5.0 | 6.0 | 0.00 | 0.00 | 0.00 | 81 | 999.5 |
| 20260507194116 | 45 | 191 | 5.0 | 6.0 | 0.00 | 0.00 | 0.00 | 81 | 999.4 |
| 20260507193612 | 45 | 177 | 5.0 | 6.0 | 0.00 | 0.00 | 0.00 | 79 | 999.3 |
| 20260507193108 | 46 | 175 | 5.0 | 6.0 | 0.00 | 0.00 | 0.00 | 80 | 999.3 |
| 20260507192604 | 46 | 175 | 5.0 | 7.0 | 0.00 | 0.00 | 0.00 | 77 | 999.2 |
| 20260507192103 | 46 | 168 | 6.0 | 7.0 | 0.00 | 0.00 | 0.00 | 75 | 999.0 |
| 20260507191545 | 46 | 168 | 5.0 | 6.0 | 0.00 | 0.00 | 0.00 | 76 | 999.0 |
| 20260507191040 | 47 | 175 | 5.0 | 7.0 | 0.00 | 0.00 | 0.00 | 74 | 999.2 |
| 20260507190536 | 47 | 170 | 5.0 | 7.0 | 0.00 | 0.00 | 0.00 | 72 | 998.9 |
| 20260507190032 | 47 | 174 | 5.0 | 7.0 | 0.00 | 0.00 | 0.00 | 73 | 998.9 |
| 20260507190010 | 47 | 172 | 5.0 | 6.0 | 0.00 | 0.00 | 0.00 | 74 | 999.0 |
| 20260507185025 | 47 | 180 | 5.0 | 6.0 | 0.00 | 0.00 | 0.00 | 74 | 998.9 |
| 20260507184519 | 47 | 183 | 5.0 | 6.0 | 0.00 | 0.00 | 0.00 | 73 | 998.9 |
| 20260507184016 | 46 | 174 | 6.0 | 6.0 | 0.00 | 0.00 | 0.00 | 67 | 998.8 |
| 20260507183511 | 46 | 175 | 5.0 | 6.0 | 0.00 | 0.00 | 0.00 | 71 | 998.7 |
| 20260507183225 | 46 | 171 | 6.0 | 6.0 | 0.00 | 0.00 | 0.00 | 76 | 998.6 |
| 20260507182505 | 47 | 169 | 6.0 | 6.0 | 0.00 | 0.00 | 0.00 | 72 | 998.6 |
| 20260507182000 | 47 | 170 | 5.0 | 6.0 | 0.00 | 0.00 | 0.00 | 72 | 998.4 |
| 20260507181456 | 47 | 171 | 5.0 | 6.0 | 0.00 | 0.00 | 0.00 | 75 | 998.4 |
| 20260507180951 | 47 | 168 | 6.0 | 7.0 | 0.00 | 0.00 | 0.00 | 74 | 998.6 |
| 20260507180437 | 48 | 179 | 5.0 | 7.0 | 0.00 | 0.00 | 0.00 | 73 | 998.5 |
| 20260507175933 | 48 | 166 | 5.0 | 6.0 | 0.00 | 0.00 | 0.00 | 74 | 998.4 |
| 20260507175431 | 49 | 168 | 5.0 | 6.0 | 0.00 | 0.00 | 0.00 | 72 | 998.5 |
| 20260507174931 | 49 | 170 | 5.0 | 7.0 | 0.00 | 0.00 | 0.00 | 72 | 998.3 |
| 20260507174431 | 50 | 169 | 5.0 | 7.0 | 0.00 | 0.00 | 0.00 | 70 | 998.2 |
| 20260507173926 | 50 | 174 | 5.0 | 6.0 | 0.00 | 0.00 | 0.00 | 71 | 998.2 |
| 20260507173412 | 49 | 158 | 6.0 | 6.0 | 0.00 | 0.00 | 0.00 | 74 | 998.4 |
| 20260507172901 | 48 | 175 | 5.0 | 6.0 | 0.00 | 0.00 | 0.00 | 73 | 998.3 |
| 20260507172618 | 49 | 174 | 5.0 | 6.0 | 0.00 | 0.00 | 0.00 | 73 | 998.2 |
| 20260507171851 | 49 | 168 | 5.0 | 6.0 | 0.00 | 0.00 | 0.00 | 73 | 998.3 |
| 20260507171331 | 49 | 174 | 5.0 | 6.0 | 0.00 | 0.00 | 0.00 | 75 | 998.4 |
| 20260507170829 | 49 | 173 | 5.0 | 6.0 | 0.00 | 0.00 | 0.00 | 74 | 998.2 |
| 20260507170330 | 49 | 180 | 5.0 | 6.0 | 0.00 | 0.00 | 0.00 | 68 | 998.4 |
| 20260507170055 | 49 | 180 | 5.0 | 6.0 | 0.00 | 0.00 | 0.00 | 66 | 998.4 |
| 20260507165329 | 49 | 180 | 5.0 | 6.0 | 0.00 | 0.00 | 0.00 | 62 | 998.3 |
| 20260507164815 | 49 | 169 | 5.0 | 6.0 | 0.00 | 0.00 | 0.00 | 63 | 998.3 |
| 20260507164311 | 50 | 173 | 5.0 | 6.0 | 0.00 | 0.00 | 0.00 | 63 | 998.3 |
| 20260507163806 | 50 | 180 | 5.0 | 6.0 | 0.00 | 0.00 | 0.00 | 61 | 998.0 |
| 20260507163511 | 50 | 180 | 5.0 | 6.0 | 0.00 | 0.00 | 0.00 | 59 | 998.2 |
| 20260507162749 | 50 | 181 | 5.0 | 6.0 | 0.00 | 0.00 | 0.00 | 61 | 998.2 |
| 20260507162721 | 51 | 177 | 5.0 | 6.0 | 0.00 | 0.00 | 0.00 | 62 | 998.0 |
| 20260507161741 | 51 | 173 | 5.0 | 6.0 | 0.00 | 0.00 | 0.00 | 64 | 998.0 |
| 20260507161236 | 51 | 170 | 6.0 | 6.0 | 0.00 | 0.00 | 0.00 | 56 | 998.2 |
| 20260507161213 | 52 | 175 | 5.0 | 6.0 | 0.00 | 0.00 | 0.00 | 56 | 998.0 |
| 20260507160227 | 52 | 181 | 4.0 | 7.0 | 0.00 | 0.00 | 0.00 | 61 | 998.2 |
| 20260507155713 | 53 | 179 | 5.0 | 7.0 | 0.00 | 0.00 | 0.00 | 57 | 998.2 |
| 20260507155157 | 53 | 172 | 5.0 | 6.0 | 0.00 | 0.00 | 0.00 | 54 | 998.3 |
| 20260507154653 | 53 | 177 | 4.0 | 6.0 | 0.00 | 0.00 | 0.00 | 54 | 998.2 |
| 20260507154350 | 54 | 177 | 5.0 | 6.0 | 0.00 | 0.00 | 0.00 | 54 | 998.0 |
| 20260507153625 | 54 | 170 | 4.0 | 6.0 | 0.00 | 0.00 | 0.00 | 53 | 998.1 |
| 20260507153111 | 54 | 170 | 5.0 | 6.0 | 0.00 | 0.00 | 0.00 | 53 | 998.2 |
| 20260507152824 | 55 | 182 | 5.0 | 8.0 | 0.00 | 0.00 | 0.00 | 51 | 998.0 |
| 20260507152102 | 56 | 162 | 6.0 | 8.0 | 0.00 | 0.00 | 0.00 | 52 | 998.2 |
| 20260507151557 | 56 | 164 | 5.0 | 8.0 | 0.00 | 0.00 | 0.00 | 47 | 997.9 |
| 20260507151054 | 56 | 155 | 6.0 | 8.0 | 0.00 | 0.01 | 0.00 | 51 | 998.0 |
| 20260507150551 | 56 | 154 | 7.0 | 9.0 | 0.00 | 0.01 | 0.00 | 53 | 998.1 |
| 20260507150058 | 56 | 176 | 4.0 | 9.0 | 0.00 | 0.01 | 0.00 | 58 | 997.9 |
| 20260507145544 | 56 | 163 | 6.0 | 9.0 | 0.00 | 0.01 | 0.00 | 55 | 998.0 |
| 20260507145037 | 56 | 184 | 5.0 | 8.0 | 0.00 | 0.01 | 0.00 | 60 | 998.1 |
| 20260507144750 | 56 | 159 | 6.0 | 6.0 | 0.00 | 0.01 | 0.00 | 57 | 998.2 |
| 20260507144029 | 56 | 177 | 4.0 | 7.0 | 0.00 | 0.01 | 0.00 | 59 | 998.1 |
| 20260507143524 | 57 | 161 | 6.0 | 7.0 | 0.00 | 0.01 | 0.00 | 61 | 998.1 |
| 20260507143020 | 56 | 161 | 5.0 | 7.0 | 0.00 | 0.01 | 0.00 | 60 | 998.1 |